Tracking 28052 objects as of 21-Sep-2023
HD Live streaming from Space Station
objects crossing your sky now

STARLINK-2303

Track STARLINK-2303 now!
10-day predictions
STARLINK-2303 is classified as:


NORAD ID: 47981
Int'l Code: 2021-024E
Perigee: 553.6 km
Apogee: 555.2 km
Inclination: 53.1 °
Period: 95.6 minutes
Semi major axis: 6925 km
RCS: Unknown
Launch date: March 24, 2021
Source: United States (US)
Launch site: AIR FORCE EASTERN TEST RANGE (AFETR)
Your satellite tracking list
Your tracking list is empty




NASA's NSSDC Master Catalog

Two Line Element Set (TLE):
1 47981U 21024E   23263.70750759  .00010211  00000-0  70364-3 0  9992
2 47981  53.0552  61.2823 0001169  77.5989 282.5131 15.06388129138765
Source of the keplerian elements: AFSPC